GSAT-7

Last updated on Sun Dec 07 2025 00:02:48 GMT+0000 (Coordinated Universal Time)

1 39234U 13044B 25340.51273025 -.00000070 00000+0 00000+0 0 9998 2 39234 0.0559 101.5558 0008131 170.3889 62.1952 1.00271224 43322
UTC large
Height (km)
Speed (km/s)
/
Latitude / Longitude
Inclination (degrees)
Orbital Period (minutes)
Azimuth
Elevation
Range (km)
Doppler Factor

Next 0 passes for location: London (51.5072 / 0.1276)

Sorry there are no passes over London.